sat.trackr.live / text

‹ back to catalog

HULIANWANG DIGUI-150

NORAD 67526 · 2026-013E

PAYLOAD ACTIVE UNKNOWN

§ Identity

Operator
Country
PRC
Launch date
2026-01-19
Launch site
WSC
Launch vehicle
Mass (kg)
RCS (m²)

External: N2YO · Heavens-Above · Gunter

§ Orbital elements

Epoch: 2026-09-20T12:28:38.673984Z

Period
108.33 min
Inclination
50.0068°
Eccentricity
0.0000736
Mean motion
13.29328400 rev/d
Perigee alt
1,148.7 km
Apogee alt
1,149.9 km
Semi-major
7,527.4 km
B*
7.1110e-5
RAAN
13.5744°
Arg perigee
105.5929°
Mean anomaly
254.5025°
Rev number
3,275

§ Raw data

HULIANWANG DIGUI-1501 67526U 26013E   26263.51989206 -.00000091  00000+0  71110-4 0  99912 67526  50.0068  13.5744 0000736 105.5929 254.5025 13.29328400 32750

JSON: /api/v1/satellites/67526 · /tle

For live sub-satellite position, see the globe view (requires WebGL).

§ Visibility from observer

Set your observer location to see the next 7 days of passes ≥ 10°. The values pass through the URL so the page stays shareable.

No JS? Fill the form by hand. The geolocation button needs JavaScript.